User: anonymous   Login
Location: Valdosta
(30.8330°N, 83.2790°W)
Time: 00:00:36
(UTC-05:00)
Language:

Oscar 19 - Orbit

View from above orbital plane
View from above orbital plane
View from above satellite
View from above satellite

Ground track
Ground track

The orbit data is extracted from the following two-line orbital elements,

1 20442U 90005G   17023.80391466 -.00000014  00000-0  10886-4 0  9999
2 20442  98.5643 321.8786 0011120 209.8503 150.2048 14.32846233410940
Epoch (UTC): 23 January 2017 19:17:38
Eccentricity: 0.0011120
inclination: 98.5643°
perigee height: 774 km
apogee height: 790 km
right ascension of ascending node: 321.8786°
argument of perigee: 209.8503°
revolutions per day: 14.32846233
mean anomaly at epoch: 150.2048°
orbit number at epoch: 41094

The dashed part of the orbit path shows where the satellite is in the earth's shadow,  

DLR